Regional Weather Roundup
Issued by NWS Kansas City/Pleasant Hill, MO

Home | Current Version | Previous Version | Graphics & Text | Print | Product List | Glossary Off
Versions: 1 2 3 4 5 6 7 8 9 10 11 12 13 14 15 16 17 18 19 20 21 22 23 24 25 26 27 28 29 30 31 32 33 34 35 36 37 38 39 40 41 42 43 44 45 46 47 48 49 50

000
ASUS43 KEAX 041210
RWREAX

WEATHER ROUNDUP FOR EASTERN KANSAS AND NORTHWEST MISSOURI
NATIONAL WEATHER SERVICE KANSAS CITY/PLEASANT HILL MO
700 AM CDT TUE AUG 04 2015

KSZ040-057-103>105-MOZ028-029-037-043-041300-
...KANSAS CITY METROPOLITAN AREA...

CITY           SKY/WX    TMP DP  RH WIND       PRES   REMARKS
K.C. INTL      CLOUDY    72  66  81 E9        29.97S
6HR MIN TEMP:  71; 6HR MAX TEMP:  75;

K.C. DOWNTOWN  CLOUDY    74  67  78 VRB5      29.96S
6HR MIN TEMP:  73; 6HR MAX TEMP:  77;

LEES SUMMIT    CLOUDY    72  67  84 SE8       29.97F
6HR MIN TEMP:  71; 6HR MAX TEMP:  74;

OLATHE - IXD   CLOUDY    72  69  90 E7        29.99R
6HR MIN TEMP:  71; 6HR MAX TEMP:  76;

OLATHE - OJC   CLOUDY    71  68  90 E6        29.97R
6HR MIN TEMP:  71; 6HR MAX TEMP:  75;

LAWRENCE       CLOUDY    71  68  90 SE6       29.97R

$$

MOZ001>008-011>017-020>025-030>033-038>040-044>046-053-054-041300-
...NORTHERN AND CENTRAL MISSOURI...

CITY           SKY/WX    TMP DP  RH WIND       PRES   REMARKS
ST. JOSEPH     PTCLDY    70  66  87 SE6       29.96R
6HR MIN TEMP:  70; 6HR MAX TEMP:  74;

MOSBY          PTSUNNY   70  68  94 SE3       29.97S
WARRENSBURG    MOCLDY    70  68  94 E3        29.98S
WHITEMAN AFB   PTCLDY    71  68  89 E6        29.98R
6HR MIN TEMP:  70; 6HR MAX TEMP:  75;

CLINTON        MOCLDY    70  70 100 S5        29.98S
SEDALIA        MOCLDY    70  66  87 S5        30.00S
6HR MIN TEMP:  70; 6HR MAX TEMP:  76;

WARSAW         NOT AVBL
CHILLICOTHE      N/A     70  66  87 N5        30.00R
6HR MIN TEMP:  70; 6HR MAX TEMP:  74; 6HR PCP:  0.01;

KIRKSVILLE     CLOUDY    66  62  87 E8        29.99F
6HR MIN TEMP:  65; 6HR MAX TEMP:  68; 6HR PCP:  0.17;


$$

MOZ041-047>049-056>058-063>065-088>090-097-041300-
...EASTERN AND SOUTHERN MISSOURI...

CITY           SKY/WX    TMP DP  RH WIND       PRES   REMARKS
ST. LOUIS INTL CLOUDY    75  65  70 E3        29.99S
6HR MIN TEMP:  75; 6HR MAX TEMP:  80;

SPIRIT OF STL  MOCLDY    72  69  90 CALM      29.97S
COLUMBIA       PTCLDY    69  67  93 E3        29.99S
JEFFERSON CITY PTCLDY    71  66  84 CALM      29.98S
ROLLA          PTCLDY    69  69 100 CALM      29.99R FOG
OSAGE BEACH    CLOUDY    70  68  94 NE6       30.00R VSB<1/4
SPRINGFIELD    MOCLDY    73  68  84 SE5       30.01R
BRANSON        CLOUDY    72  64  78 CALM      30.03R
JOPLIN         MOCLDY    74  65  73 SE5       29.98R
WEST PLAINS    PTCLDY    70  66  87 CALM      30.03R

$$

IAZ060-094-KSZ022-034>040-054-083-096-NEZ052-066-093-041300-
...KANSAS...SOUTHEAST NEBRASKA AND IOWA...

CITY           SKY/WX    TMP DP  RH WIND       PRES   REMARKS
TOPEKA         CLOUDY    72  71  97 SE5       29.97R
6HR MIN TEMP:  72; 6HR MAX TEMP:  75;

MANHATTAN      CLOUDY    72  70  93 NE3       29.95R
EMPORIA        CLOUDY    70  67  90 SE5       29.96R
CHANUTE        CLOUDY    70  67  90 E7        29.97R
WICHITA        CLOUDY    74  68  81 S8        29.94S
OMAHA          TSTM      68  65  90 N5        30.02R
LINCOLN        CLOUDY    71  63  75 SE9       29.97F
FALLS CITY     CLEAR     69  67  93 SE6       29.94F
LAMONI         MOCLDY    67  64  90 CALM      29.99R
DES MOINES     CLOUDY    69  59  70 CALM      29.98S

$$



USA.gov is the U.S. government's official web portal to all federal, state and local government web resources and services.